Regional Weather Roundup
Issued by NWS Burlington, VT

Home | Current Version | Previous Version | Text Only | Print | Product List | Glossary On
Versions: 1 2 3 4 5 6 7 8 9 10 11 12 13 14 15 16 17 18 19 20 21 22 23 24 25 26 27 28 29 30 31 32 33 34 35 36 37 38 39 40 41 42 43 44 45 46 47 48 49 50
000
ASUS41 KBTV 210530
RWRBTV
VERMONT REGIONAL WEATHER ROUNDUP
NATIONAL WEATHER SERVICE BURLINGTON VT
1200 AM EST SAT JAN 21 2017

NOTE: "FAIR" INDICATES FEW OR NO CLOUDS BELOW 12,000 FEET WITH NO
SIGNIFICANT WEATHER AND/OR OBSTRUCTIONS TO VISIBILITY.

* THESE REPORTS ARE NOT UNDER NWS QUALITY CONTROL AND/OR DO NOT
  REPORT WEATHER SUCH AS PRECIPITATION AND FOG.

VTZ001>019-210600-
_____VERMONT_____


CITY           SKY/WX    TMP DP  RH WIND       PRES   REMARKS
BURLINGTON     CLOUDY    38  31  76 S9        29.84F WCI  31
MONTPELIER     CLOUDY    32  29  88 VRB3      29.86F
MORRISVILLE    CLOUDY    32  28  85 CALM      29.85F
ST. JOHNSBURY*   N/A     34  29  82 MISG      29.84F
LYNDONVILLE*   CLOUDY    31  29  91 SE5       29.85F WCI  26
MIDDLEBURY*    CLOUDY    37  26  65 S6        29.85S WCI  32
RUTLAND*       CLOUDY    35  31  85 SE6       29.86F WCI  30
SPRINGFIELD    CLOUDY    32  31  96 CALM      29.88F
HIGHGATE*      CLOUDY    36  31  83 S5        29.83F WCI  32
NEWPORT*       CLOUDY    31  28  87 S5        29.84S WCI  27
BENNINGTON     CLOUDY    38  32  79 CALM      29.85S
SUTTON*          N/A     28 N/A N/A MISG        N/A
ISLAND POND*     N/A     30 N/A N/A S2          N/A
GALLUP MILLS*    N/A     28 N/A N/A MISG        N/A
UNION VILLAGE*   N/A     32 N/A N/A MISG        N/A
MT. MANSFIELD*   N/A     28 N/A N/A SW26        N/A  WCI  13

_____LAKE CHAMPLAIN_____


CITY           SKY/WX    TMP DP  RH WIND       PRES   REMARKS

$$

NYZ007-026>031-035-052-083-087-210600-
_____NORTHERN NEW YORK_____


CITY           SKY/WX    TMP DP  RH WIND       PRES   REMARKS
PLATTSBURGH    CLOUDY    32  29  88 CALM      29.83F
SARANAC LAKE   CLOUDY    33  31  92 SW5       29.76F FOG     WCI  29
MASSENA        CLOUDY    34  31  88 CALM      29.82F
OGDENSBURG*    CLOUDY    34  32  93 CALM      29.80S
POTSDAM*       CLOUDY   N/A N/A N/A CALM      29.80F
STARK FALLS*     N/A     34 N/A N/A SE13        N/A  WCI  25
WATERTOWN      CLOUDY    39  38  96 CALM      29.78F
FT DRUM        CLOUDY    37  33  88 SE13      29.77F WCI  28
ALBANY         CLOUDY    39  33  79 S10       29.87F
GLENS FALLS    CLOUDY    34  31  88 CALM      29.87S FOG

$$
NHZ002-005-011-210600-
_____NEW HAMPSHIRE_____


CITY           SKY/WX    TMP DP  RH WIND       PRES   REMARKS
LEBANON        CLOUDY    34  31  88 S3        29.86F
KEENE          CLOUDY    33  31  92 CALM      29.90S
MT WASHINGTON  MOCLDY    36  21  55 W18         N/A  WCI  25
PLYMOUTH       CLOUDY    32  30  94 CALM      29.88F
WHITEFIELD     CLOUDY    28  23  81 CALM      29.85F

$$

_____REGIONAL QUEBEC LOCATIONS_____


CITY           SKY/WX    TMP DP  RH WIND       PRES   REMARKS
MONTREAL       CLOUDY    34  30  86 SE3       29.82F
QUEBEC CITY    CLOUDY    30  28  93 SW6       29.83F WCI  24
SHERBROOKE     CLOUDY    30  27  86 S2        29.83F

_____REGIONAL ONTARIO LOCATIONS_____


CITY           SKY/WX    TMP DP  RH WIND       PRES   REMARKS
OTTAWA         CLOUDY    32  30  93 NE5       29.80F WCI  27

______KEY______
VSB  - VISIBILITY IN MILES
WCI  - WIND CHILL INDEX
HX   - HEAT INDEX
$$
NNNN



USA.gov is the U.S. government's official web portal to all federal, state and local government web resources and services.